Wetterdaten: Freitag, 02.10.2015
Datum Zeit Auen-Temp. Temp gefhlt Luftfeuchte Luftdruck Regen Wind Richtung Richtung Taupunkt Windben
02.10.2015 00:00 4,3 C 4,0 C 87 % 1023,2 hPa 0,0 mm 0,5 km/h (0 Bft) O-SO 112 2,3 C 0,0 km/h (0 Bft)
02.10.2015 00:05 3,7 C 3,6 C 86 % 1023,2 hPa 0,0 mm 0,5 km/h (0 Bft) O-SO 112 1,6 C 0,0 km/h (0 Bft)
02.10.2015 00:10 3,4 C 3,2 C 86 % 1023,2 hPa 0,0 mm 0,0 km/h (0 Bft) S-SO 157 1,3 C 0,0 km/h (0 Bft)
02.10.2015 00:15 3,5 C 3,3 C 86 % 1023,1 hPa 0,0 mm 0,0 km/h (0 Bft) O-SO 112 1,4 C 0,0 km/h (0 Bft)
02.10.2015 00:20 3,4 C 3,2 C 86 % 1023,1 hPa 0,0 mm 0,0 km/h (0 Bft) S-SO 157 1,3 C 0,0 km/h (0 Bft)
02.10.2015 00:25 3,3 C 3,1 C 86 % 1023,1 hPa 0,0 mm 0,0 km/h (0 Bft) S 180 1,2 C 0,0 km/h (0 Bft)
02.10.2015 00:30 3,6 C 3,4 C 83 % 1023,1 hPa 0,0 mm 0,0 km/h (0 Bft) S-SO 157 1,0 C 0,0 km/h (0 Bft)
02.10.2015 00:35 3,4 C 3,4 C 86 % 1022,9 hPa 0,0 mm 0,0 km/h (0 Bft) S-SO 157 1,3 C 0,0 km/h (0 Bft)
02.10.2015 00:40 3,1 C 3,1 C 86 % 1022,9 hPa 0,0 mm 0,0 km/h (0 Bft) S 180 1,0 C 0,0 km/h (0 Bft)
02.10.2015 00:45 3,3 C 3,1 C 86 % 1022,9 hPa 0,0 mm 0,0 km/h (0 Bft) SO 135 1,2 C 0,0 km/h (0 Bft)
02.10.2015 00:50 3,1 C 3,0 C 86 % 1022,9 hPa 0,0 mm 0,0 km/h (0 Bft) SO 135 1,0 C 0,0 km/h (0 Bft)
02.10.2015 00:55 3,7 C 3,7 C 84 % 1022,9 hPa 0,0 mm 0,5 km/h (0 Bft) S 180 1,3 C 4,4 km/h (1 Bft)
02.10.2015 01:00 4,3 C 4,3 C 84 % 1022,9 hPa 0,0 mm 2,1 km/h (1 Bft) S-SO 157 1,8 C 2,8 km/h (1 Bft)
02.10.2015 01:05 4,4 C 4,4 C 85 % 1022,9 hPa 0,0 mm 2,3 km/h (1 Bft) SO 135 2,1 C 3,1 km/h (1 Bft)
02.10.2015 01:10 4,3 C 4,3 C 84 % 1022,9 hPa 0,0 mm 3,1 km/h (1 Bft) S-SO 157 1,8 C 6,2 km/h (2 Bft)
02.10.2015 01:15 4,3 C 4,1 C 88 % 1022,8 hPa 0,0 mm 2,3 km/h (1 Bft) SO 135 2,5 C 0,0 km/h (0 Bft)
02.10.2015 01:20 3,6 C 3,5 C 88 % 1022,8 hPa 0,0 mm 0,3 km/h (0 Bft) SO 135 1,8 C 0,0 km/h (0 Bft)
02.10.2015 01:25 4,1 C 3,9 C 84 % 1022,8 hPa 0,0 mm 0,3 km/h (0 Bft) S-SO 157 1,6 C 2,6 km/h (1 Bft)
02.10.2015 01:30 3,7 C 3,6 C 89 % 1022,8 hPa 0,0 mm 0,5 km/h (0 Bft) S-SO 157 2,1 C 0,0 km/h (0 Bft)
02.10.2015 01:35 3,3 C 3,2 C 88 % 1022,8 hPa 0,0 mm 0,5 km/h (0 Bft) O-SO 112 1,5 C 0,0 km/h (0 Bft)
02.10.2015 01:40 3,0 C 2,8 C 88 % 1022,8 hPa 0,0 mm 0,0 km/h (0 Bft) O-SO 112 1,2 C 0,0 km/h (0 Bft)
02.10.2015 01:45 3,1 C 2,8 C 87 % 1022,8 hPa 0,0 mm 0,3 km/h (0 Bft) SW 225 1,2 C 3,4 km/h (1 Bft)
02.10.2015 01:50 2,9 C 2,7 C 88 % 1022,8 hPa 0,0 mm 0,5 km/h (0 Bft) SW 225 1,1 C 0,0 km/h (0 Bft)
02.10.2015 01:55 3,0 C 2,7 C 87 % 1022,6 hPa 0,0 mm 0,3 km/h (0 Bft) SW 225 1,1 C 0,0 km/h (0 Bft)
02.10.2015 02:00 2,8 C 2,5 C 88 % 1022,6 hPa 0,0 mm 0,0 km/h (0 Bft) SW 225 1,0 C 0,0 km/h (0 Bft)
02.10.2015 02:05 2,6 C 2,4 C 88 % 1022,6 hPa 0,0 mm 0,0 km/h (0 Bft) SW 225 0,8 C 0,0 km/h (0 Bft)
02.10.2015 02:10 2,5 C 2,2 C 88 % 1022,6 hPa 0,0 mm 0,0 km/h (0 Bft) SW 225 0,7 C 0,0 km/h (0 Bft)
02.10.2015 02:12 2,4 C 2,1 C 88 % 1022,6 hPa 0,0 mm 0,0 km/h (0 Bft) SW 225 0,6 C 0,0 km/h (0 Bft)
02.10.2015 02:15 2,4 C 2,1 C 88 % 1022,6 hPa 0,0 mm 0,0 km/h (0 Bft) SW 225 0,6 C 0,0 km/h (0 Bft)
02.10.2015 02:20 2,5 C 2,1 C 88 % 1022,6 hPa 0,0 mm 0,0 km/h (0 Bft) SW 225 0,7 C 0,0 km/h (0 Bft)
02.10.2015 02:25 2,5 C 2,1 C 88 % 1022,6 hPa 0,0 mm 0,0 km/h (0 Bft) SW 225 0,7 C 0,0 km/h (0 Bft)
02.10.2015 02:30 2,3 C 2,0 C 88 % 1022,6 hPa 0,0 mm 0,0 km/h (0 Bft) SW 225 0,5 C 0,0 km/h (0 Bft)
02.10.2015 02:35 2,0 C 1,8 C 88 % 1022,4 hPa 0,0 mm 0,0 km/h (0 Bft) SW 225 0,2 C 0,0 km/h (0 Bft)
02.10.2015 02:40 2,3 C 2,0 C 88 % 1022,4 hPa 0,0 mm 0,0 km/h (0 Bft) SW 225 0,5 C 0,0 km/h (0 Bft)
02.10.2015 02:45 2,1 C 2,0 C 88 % 1022,4 hPa 0,0 mm 0,0 km/h (0 Bft) SW 225 0,3 C 0,0 km/h (0 Bft)
02.10.2015 02:50 1,9 C 1,8 C 88 % 1022,4 hPa 0,0 mm 0,0 km/h (0 Bft) SW 225 0,1 C 0,0 km/h (0 Bft)
02.10.2015 02:55 1,9 C 1,8 C 88 % 1022,2 hPa 0,0 mm 0,0 km/h (0 Bft) SW 225 0,1 C 0,0 km/h (0 Bft)
02.10.2015 03:00 2,2 C 1,9 C 88 % 1022,2 hPa 0,0 mm 0,0 km/h (0 Bft) SW 225 0,4 C 0,0 km/h (0 Bft)
02.10.2015 03:05 1,8 C 1,7 C 88 % 1022,2 hPa 0,0 mm 0,0 km/h (0 Bft) SW 225 0,0 C 0,0 km/h (0 Bft)
02.10.2015 03:10 1,6 C 1,4 C 88 % 1022,2 hPa 0,0 mm 0,0 km/h (0 Bft) SW 225 -0,2 C 0,0 km/h (0 Bft)
02.10.2015 03:15 1,9 C 1,6 C 89 % 1022,1 hPa 0,0 mm 0,0 km/h (0 Bft) SW 225 0,3 C 0,0 km/h (0 Bft)
02.10.2015 03:20 1,7 C 1,5 C 89 % 1022,1 hPa 0,0 mm 0,0 km/h (0 Bft) SW 225 0,1 C 0,0 km/h (0 Bft)
02.10.2015 03:25 1,8 C 1,6 C 89 % 1022,1 hPa 0,0 mm 0,0 km/h (0 Bft) SW 225 0,2 C 0,0 km/h (0 Bft)
02.10.2015 03:30 1,7 C 1,5 C 89 % 1022,1 hPa 0,0 mm 0,0 km/h (0 Bft) W-SW 247 0,1 C 0,0 km/h (0 Bft)
02.10.2015 03:35 2,1 C 1,8 C 89 % 1021,8 hPa 0,0 mm 0,0 km/h (0 Bft) W-SW 247 0,5 C 0,0 km/h (0 Bft)
02.10.2015 03:40 2,2 C 1,9 C 89 % 1021,8 hPa 0,0 mm 0,0 km/h (0 Bft) SW 225 0,6 C 0,0 km/h (0 Bft)
02.10.2015 03:45 2,2 C 1,9 C 89 % 1021,8 hPa 0,0 mm 0,0 km/h (0 Bft) SW 225 0,6 C 0,0 km/h (0 Bft)
02.10.2015 03:50 1,6 C 1,5 C 89 % 1021,8 hPa 0,0 mm 0,0 km/h (0 Bft) SO 135 -0,0 C 0,0 km/h (0 Bft)
02.10.2015 03:55 1,8 C 1,6 C 89 % 1021,8 hPa 0,0 mm 0,0 km/h (0 Bft) SO 135 0,2 C 0,0 km/h (0 Bft)
02.10.2015 04:00 1,5 C 1,4 C 89 % 1021,8 hPa 0,0 mm 0,0 km/h (0 Bft) SO 135 -0,1 C 0,0 km/h (0 Bft)
02.10.2015 04:05 1,5 C 1,3 C 89 % 1021,8 hPa 0,0 mm 0,0 km/h (0 Bft) SO 135 -0,1 C 0,0 km/h (0 Bft)
02.10.2015 04:10 1,7 C 1,4 C 89 % 1021,8 hPa 0,0 mm 0,0 km/h (0 Bft) SO 135 0,1 C 0,0 km/h (0 Bft)
02.10.2015 04:15 1,9 C 1,5 C 89 % 1021,6 hPa 0,0 mm 0,0 km/h (0 Bft) SO 135 0,3 C 0,0 km/h (0 Bft)
02.10.2015 04:20 1,7 C 1,4 C 89 % 1021,6 hPa 0,0 mm 0,0 km/h (0 Bft) SO 135 0,1 C 0,0 km/h (0 Bft)
02.10.2015 04:25 2,0 C 1,7 C 89 % 1021,6 hPa 0,0 mm 0,0 km/h (0 Bft) SO 135 0,4 C 0,0 km/h (0 Bft)
02.10.2015 04:30 1,8 C 1,5 C 90 % 1021,6 hPa 0,0 mm 0,0 km/h (0 Bft) SW 225 0,3 C 0,0 km/h (0 Bft)
02.10.2015 04:35 2,0 C 1,7 C 89 % 1021,4 hPa 0,0 mm 0,0 km/h (0 Bft) S-SW 202 0,4 C 0,0 km/h (0 Bft)
02.10.2015 04:40 1,5 C 1,4 C 90 % 1021,4 hPa 0,0 mm 0,0 km/h (0 Bft) SW 225 0,0 C 0,0 km/h (0 Bft)
02.10.2015 04:45 1,4 C 1,3 C 89 % 1021,4 hPa 0,0 mm 0,0 km/h (0 Bft) SW 225 -0,2 C 0,0 km/h (0 Bft)
02.10.2015 04:50 1,2 C 1,1 C 89 % 1021,4 hPa 0,0 mm 0,0 km/h (0 Bft) SW 225 -0,4 C 0,0 km/h (0 Bft)
02.10.2015 04:55 1,2 C 1,0 C 89 % 1021,3 hPa 0,0 mm 0,0 km/h (0 Bft) SW 225 -0,4 C 0,0 km/h (0 Bft)
02.10.2015 05:00 1,4 C 1,1 C 89 % 1021,3 hPa 0,0 mm 0,0 km/h (0 Bft) SW 225 -0,2 C 0,0 km/h (0 Bft)
02.10.2015 05:05 1,2 C 1,0 C 89 % 1021,3 hPa 0,0 mm 0,0 km/h (0 Bft) SW 225 -0,4 C 0,0 km/h (0 Bft)
02.10.2015 05:10 1,1 C 0,9 C 89 % 1021,3 hPa 0,0 mm 0,0 km/h (0 Bft) SW 225 -0,5 C 0,0 km/h (0 Bft)
02.10.2015 05:15 1,5 C 1,2 C 90 % 1021,2 hPa 0,0 mm 0,0 km/h (0 Bft) S-SW 202 0,0 C 0,0 km/h (0 Bft)
02.10.2015 05:20 1,8 C 1,6 C 86 % 1021,2 hPa 0,0 mm 0,0 km/h (0 Bft) S 180 -0,3 C 0,0 km/h (0 Bft)
02.10.2015 05:25 1,4 C 1,3 C 90 % 1021,2 hPa 0,0 mm 0,0 km/h (0 Bft) SW 225 -0,1 C 0,0 km/h (0 Bft)
02.10.2015 05:30 1,0 C 1,0 C 90 % 1021,2 hPa 0,0 mm 0,0 km/h (0 Bft) SW 225 -0,5 C 0,0 km/h (0 Bft)
02.10.2015 05:35 1,5 C 1,2 C 90 % 1021,0 hPa 0,0 mm 0,3 km/h (0 Bft) S-SO 157 0,0 C 2,8 km/h (1 Bft)
02.10.2015 05:40 2,0 C 1,8 C 91 % 1021,0 hPa 0,0 mm 0,3 km/h (0 Bft) SW 225 0,7 C 0,0 km/h (0 Bft)
02.10.2015 05:45 1,3 C 1,3 C 91 % 1021,0 hPa 0,0 mm 0,3 km/h (0 Bft) SW 225 -0,0 C 0,0 km/h (0 Bft)
02.10.2015 05:50 1,1 C 1,0 C 91 % 1021,0 hPa 0,0 mm 0,0 km/h (0 Bft) SW 225 -0,2 C 0,0 km/h (0 Bft)
02.10.2015 05:55 1,1 C 0,9 C 91 % 1021,1 hPa 0,0 mm 0,0 km/h (0 Bft) SW 225 -0,2 C 0,0 km/h (0 Bft)
02.10.2015 06:00 1,4 C 1,0 C 91 % 1021,1 hPa 0,0 mm 0,0 km/h (0 Bft) SW 225 0,1 C 0,0 km/h (0 Bft)
02.10.2015 06:05 1,6 C 1,3 C 87 % 1021,1 hPa 0,0 mm 0,0 km/h (0 Bft) SW 225 -0,3 C 0,0 km/h (0 Bft)
02.10.2015 06:10 1,1 C 0,9 C 91 % 1021,1 hPa 0,0 mm 0,0 km/h (0 Bft) SW 225 -0,2 C 0,0 km/h (0 Bft)
02.10.2015 06:15 1,0 C 0,8 C 91 % 1021,2 hPa 0,0 mm 0,0 km/h (0 Bft) SW 225 -0,3 C 0,0 km/h (0 Bft)
02.10.2015 06:20 1,0 C 0,7 C 91 % 1021,2 hPa 0,0 mm 0,0 km/h (0 Bft) SW 225 -0,3 C 0,0 km/h (0 Bft)
02.10.2015 06:25 1,0 C 0,7 C 91 % 1021,2 hPa 0,0 mm 0,0 km/h (0 Bft) SW 225 -0,3 C 0,0 km/h (0 Bft)
02.10.2015 06:30 0,8 C 0,6 C 91 % 1021,2 hPa 0,0 mm 0,0 km/h (0 Bft) SW 225 -0,5 C 0,0 km/h (0 Bft)
02.10.2015 06:35 0,7 C 0,5 C 91 % 1021,2 hPa 0,0 mm 0,0 km/h (0 Bft) SW 225 -0,6 C 0,0 km/h (0 Bft)
02.10.2015 06:40 0,6 C 0,4 C 91 % 1021,2 hPa 0,0 mm 0,0 km/h (0 Bft) SW 225 -0,7 C 0,0 km/h (0 Bft)
02.10.2015 06:45 0,8 C 0,5 C 91 % 1021,2 hPa 0,0 mm 0,0 km/h (0 Bft) SW 225 -0,5 C 0,0 km/h (0 Bft)
02.10.2015 06:50 0,6 C 0,4 C 91 % 1021,2 hPa 0,0 mm 0,0 km/h (0 Bft) SW 225 -0,7 C 0,0 km/h (0 Bft)
02.10.2015 06:55 0,7 C 0,4 C 91 % 1020,9 hPa 0,0 mm 0,0 km/h (0 Bft) SW 225 -0,6 C 0,0 km/h (0 Bft)
02.10.2015 07:00 0,7 C 0,4 C 91 % 1020,9 hPa 0,0 mm 0,0 km/h (0 Bft) S-SW 202 -0,6 C 0,0 km/h (0 Bft)
02.10.2015 07:05 0,6 C 0,4 C 91 % 1020,9 hPa 0,0 mm 0,0 km/h (0 Bft) S-SW 202 -0,7 C 0,0 km/h (0 Bft)
02.10.2015 07:10 1,4 C 1,3 C 87 % 1020,9 hPa 0,0 mm 0,0 km/h (0 Bft) S 180 -0,5 C 0,0 km/h (0 Bft)
02.10.2015 07:15 1,6 C 1,4 C 87 % 1021,4 hPa 0,0 mm 0,0 km/h (0 Bft) S-SW 202 -0,3 C 0,0 km/h (0 Bft)
02.10.2015 07:20 1,0 C 0,9 C 92 % 1021,4 hPa 0,0 mm 0,0 km/h (0 Bft) S-SW 202 -0,2 C 0,0 km/h (0 Bft)
02.10.2015 07:25 0,8 C 0,7 C 92 % 1021,4 hPa 0,0 mm 0,0 km/h (0 Bft) SO 135 -0,3 C 0,0 km/h (0 Bft)
02.10.2015 07:30 1,1 C 0,9 C 92 % 1021,4 hPa 0,0 mm 0,0 km/h (0 Bft) S-SO 157 -0,1 C 0,0 km/h (0 Bft)
02.10.2015 07:35 1,8 C 1,9 C 88 % 1021,2 hPa 0,0 mm 0,5 km/h (0 Bft) S-SW 202 0,0 C 3,4 km/h (1 Bft)
02.10.2015 07:40 1,9 C 2,0 C 88 % 1021,2 hPa 0,0 mm 0,5 km/h (0 Bft) SW 225 0,1 C 0,0 km/h (0 Bft)
02.10.2015 07:45 1,4 C 1,7 C 92 % 1021,2 hPa 0,0 mm 0,0 km/h (0 Bft) SW 225 0,2 C 0,0 km/h (0 Bft)
02.10.2015 07:50 1,4 C 1,7 C 92 % 1021,2 hPa 0,0 mm 0,0 km/h (0 Bft) SW 225 0,2 C 0,0 km/h (0 Bft)
02.10.2015 07:55 1,4 C 1,8 C 92 % 1021,2 hPa 0,0 mm 0,0 km/h (0 Bft) SW 225 0,2 C 0,0 km/h (0 Bft)
02.10.2015 08:00 1,4 C 1,8 C 92 % 1021,2 hPa 0,0 mm 0,0 km/h (0 Bft) SW 225 0,2 C 0,0 km/h (0 Bft)
02.10.2015 08:05 1,4 C 1,7 C 92 % 1021,2 hPa 0,0 mm 0,0 km/h (0 Bft) SW 225 0,2 C 0,0 km/h (0 Bft)
02.10.2015 08:10 1,8 C 1,8 C 92 % 1021,2 hPa 0,0 mm 0,0 km/h (0 Bft) SW 225 0,6 C 0,0 km/h (0 Bft)
02.10.2015 08:13 2,1 C 2,2 C 87 % 1021,2 hPa 0,0 mm 0,0 km/h (0 Bft) SW 225 0,2 C 0,0 km/h (0 Bft)
02.10.2015 08:15 2,1 C 2,2 C 87 % 1021,2 hPa 0,0 mm 0,0 km/h (0 Bft) SW 225 0,2 C 0,0 km/h (0 Bft)
02.10.2015 08:20 2,3 C 2,5 C 92 % 1021,2 hPa 0,0 mm 0,3 km/h (0 Bft) SW 225 1,1 C 0,0 km/h (0 Bft)
02.10.2015 08:25 2,3 C 2,6 C 92 % 1021,2 hPa 0,0 mm 0,3 km/h (0 Bft) SW 225 1,1 C 0,0 km/h (0 Bft)
02.10.2015 08:30 1,9 C 2,2 C 93 % 1021,2 hPa 0,0 mm 0,0 km/h (0 Bft) SW 225 0,9 C 0,0 km/h (0 Bft)
02.10.2015 08:35 1,9 C 2,1 C 88 % 1021,1 hPa 0,0 mm 0,0 km/h (0 Bft) S-SO 157 0,1 C 0,0 km/h (0 Bft)
02.10.2015 08:40 1,9 C 2,1 C 88 % 1021,1 hPa 0,0 mm 0,0 km/h (0 Bft) SO 135 0,1 C 0,0 km/h (0 Bft)
02.10.2015 08:45 1,9 C 2,1 C 88 % 1021,1 hPa 0,0 mm 0,0 km/h (0 Bft) SO 135 0,1 C 0,0 km/h (0 Bft)
02.10.2015 08:50 2,4 C 2,5 C 93 % 1021,1 hPa 0,0 mm 0,0 km/h (0 Bft) SW 225 1,4 C 0,0 km/h (0 Bft)
02.10.2015 08:55 2,5 C 2,9 C 93 % 1021,1 hPa 0,0 mm 0,0 km/h (0 Bft) SW 225 1,5 C 0,0 km/h (0 Bft)
02.10.2015 09:00 3,0 C 4,9 C 92 % 1021,1 hPa 0,0 mm 0,0 km/h (0 Bft) S-SW 202 1,8 C 0,0 km/h (0 Bft)
02.10.2015 09:05 3,2 C 6,3 C 87 % 1021,1 hPa 0,0 mm 0,0 km/h (0 Bft) S-SW 202 1,2 C 0,0 km/h (0 Bft)
02.10.2015 09:10 3,3 C 9,1 C 87 % 1021,1 hPa 0,0 mm 0,0 km/h (0 Bft) S 180 1,3 C 0,0 km/h (0 Bft)
02.10.2015 09:15 3,6 C 10,2 C 88 % 1020,8 hPa 0,0 mm 0,0 km/h (0 Bft) SO 135 1,8 C 0,0 km/h (0 Bft)
02.10.2015 09:20 4,1 C 11,2 C 87 % 1020,8 hPa 0,0 mm 0,0 km/h (0 Bft) SO 135 2,1 C 0,0 km/h (0 Bft)
02.10.2015 09:25 4,3 C 12,5 C 88 % 1020,8 hPa 0,0 mm 0,0 km/h (0 Bft) SO 135 2,5 C 0,0 km/h (0 Bft)
02.10.2015 09:30 4,5 C 13,5 C 88 % 1020,8 hPa 0,0 mm 0,0 km/h (0 Bft) O-SO 112 2,7 C 0,0 km/h (0 Bft)
02.10.2015 09:35 4,7 C 13,6 C 88 % 1020,6 hPa 0,0 mm 0,0 km/h (0 Bft) O-SO 112 2,9 C 0,0 km/h (0 Bft)
02.10.2015 09:40 5,1 C 13,8 C 88 % 1020,6 hPa 0,0 mm 0,3 km/h (0 Bft) O-NO 67 3,3 C 0,0 km/h (0 Bft)
02.10.2015 09:45 5,4 C 14,7 C 88 % 1020,6 hPa 0,0 mm 0,3 km/h (0 Bft) O-NO 67 3,6 C 0,0 km/h (0 Bft)
02.10.2015 09:50 5,7 C 16,4 C 88 % 1020,6 hPa 0,0 mm 0,0 km/h (0 Bft) O-NO 67 3,9 C 0,0 km/h (0 Bft)
02.10.2015 09:55 5,9 C 17,4 C 88 % 1021,4 hPa 0,0 mm 0,0 km/h (0 Bft) O-NO 67 4,1 C 0,0 km/h (0 Bft)
02.10.2015 10:00 6,2 C 18,7 C 87 % 1021,4 hPa 0,0 mm 0,0 km/h (0 Bft) O-NO 67 4,2 C 0,0 km/h (0 Bft)
02.10.2015 10:05 6,5 C 19,1 C 87 % 1021,4 hPa 0,0 mm 0,0 km/h (0 Bft) O-NO 67 4,5 C 0,0 km/h (0 Bft)
02.10.2015 10:10 7,0 C 19,6 C 87 % 1021,4 hPa 0,0 mm 0,0 km/h (0 Bft) SO 135 5,0 C 0,0 km/h (0 Bft)
02.10.2015 10:15 7,2 C 19,5 C 87 % 1022,3 hPa 0,0 mm 0,0 km/h (0 Bft) SO 135 5,2 C 0,0 km/h (0 Bft)
02.10.2015 10:20 7,4 C 19,3 C 87 % 1022,3 hPa 0,0 mm 0,0 km/h (0 Bft) O 90 5,4 C 0,0 km/h (0 Bft)
02.10.2015 10:25 7,7 C 20,0 C 87 % 1022,3 hPa 0,0 mm 0,3 km/h (0 Bft) NO 45 5,7 C 4,4 km/h (1 Bft)
02.10.2015 10:30 8,1 C 19,9 C 86 % 1022,3 hPa 0,0 mm 0,3 km/h (0 Bft) O-NO 67 5,9 C 0,0 km/h (0 Bft)
02.10.2015 10:35 8,4 C 20,1 C 86 % 1022,9 hPa 0,0 mm 0,3 km/h (0 Bft) O 90 6,2 C 0,0 km/h (0 Bft)
02.10.2015 10:40 9,1 C 20,0 C 86 % 1022,9 hPa 0,0 mm 0,0 km/h (0 Bft) NO 45 6,9 C 0,0 km/h (0 Bft)
02.10.2015 10:45 9,9 C 19,7 C 85 % 1022,9 hPa 0,0 mm 1,6 km/h (1 Bft) NO 45 7,5 C 7,0 km/h (2 Bft)
02.10.2015 10:50 10,8 C 19,5 C 84 % 1022,9 hPa 0,0 mm 2,3 km/h (1 Bft) O-NO 67 8,2 C 8,3 km/h (2 Bft)
02.10.2015 10:55 11,2 C 19,6 C 82 % 1023,4 hPa 0,0 mm 2,6 km/h (1 Bft) NO 45 8,2 C 7,0 km/h (2 Bft)
02.10.2015 11:00 11,7 C 19,3 C 80 % 1023,4 hPa 0,0 mm 3,1 km/h (1 Bft) O-NO 67 8,4 C 8,8 km/h (2 Bft)
02.10.2015 11:05 12,2 C 19,6 C 79 % 1023,4 hPa 0,0 mm 2,6 km/h (1 Bft) O-NO 67 8,7 C 2,6 km/h (1 Bft)
02.10.2015 11:10 12,6 C 19,2 C 77 % 1023,4 hPa 0,0 mm 3,9 km/h (1 Bft) O-NO 67 8,7 C 11,1 km/h (2 Bft)
02.10.2015 11:15 12,7 C 18,9 C 77 % 1023,6 hPa 0,0 mm 5,2 km/h (1 Bft) O 90 8,8 C 6,0 km/h (2 Bft)
02.10.2015 11:20 12,7 C 18,7 C 76 % 1023,6 hPa 0,0 mm 4,7 km/h (1 Bft) O-SO 112 8,6 C 0,0 km/h (0 Bft)
02.10.2015 11:25 13,0 C 18,9 C 74 % 1023,6 hPa 0,0 mm 4,9 km/h (1 Bft) NO 45 8,5 C 8,5 km/h (2 Bft)
02.10.2015 11:30 13,0 C 18,8 C 73 % 1023,6 hPa 0,0 mm 5,2 km/h (1 Bft) NO 45 8,3 C 11,4 km/h (2 Bft)
02.10.2015 11:35 12,9 C 18,5 C 73 % 1023,9 hPa 0,0 mm 5,7 km/h (1 Bft) O-SO 112 8,2 C 4,4 km/h (1 Bft)
02.10.2015 11:40 13,0 C 18,0 C 72 % 1023,9 hPa 0,0 mm 4,9 km/h (1 Bft) NO 45 8,1 C 7,8 km/h (2 Bft)
02.10.2015 11:45 13,2 C 18,0 C 72 % 1023,9 hPa 0,0 mm 4,4 km/h (1 Bft) N-NO 22 8,3 C 10,6 km/h (2 Bft)
02.10.2015 11:50 13,6 C 18,8 C 71 % 1023,9 hPa 0,0 mm 6,7 km/h (2 Bft) O-NO 67 8,4 C 12,7 km/h (3 Bft)
02.10.2015 11:55 13,6 C 18,7 C 70 % 1023,5 hPa 0,0 mm 7,8 km/h (2 Bft) NO 45 8,2 C 11,9 km/h (2 Bft)
02.10.2015 12:00 13,3 C 18,0 C 70 % 1023,5 hPa 0,0 mm 7,8 km/h (2 Bft) O-NO 67 7,9 C 17,3 km/h (3 Bft)
02.10.2015 12:05 13,0 C 17,2 C 70 % 1023,5 hPa 0,0 mm 6,5 km/h (2 Bft) O-NO 67 7,7 C 4,4 km/h (1 Bft)
02.10.2015 12:10 13,1 C 16,8 C 69 % 1023,5 hPa 0,0 mm 4,9 km/h (1 Bft) SO 135 7,5 C 7,8 km/h (2 Bft)
02.10.2015 12:15 12,9 C 16,5 C 70 % 1023,2 hPa 0,0 mm 4,4 km/h (1 Bft) O-NO 67 7,6 C 0,0 km/h (0 Bft)
02.10.2015 12:20 12,4 C 15,2 C 70 % 1023,2 hPa 0,0 mm 3,4 km/h (1 Bft) NO 45 7,1 C 0,0 km/h (0 Bft)
02.10.2015 12:25 12,3 C 14,6 C 71 % 1023,2 hPa 0,0 mm 2,3 km/h (1 Bft) O-NO 67 7,2 C 0,0 km/h (0 Bft)
02.10.2015 12:30 12,7 C 14,7 C 71 % 1023,2 hPa 0,0 mm 1,6 km/h (1 Bft) SO 135 7,6 C 3,6 km/h (1 Bft)
02.10.2015 12:35 13,1 C 16,1 C 70 % 1022,2 hPa 0,0 mm 2,6 km/h (1 Bft) O-NO 67 7,8 C 5,7 km/h (1 Bft)
02.10.2015 12:40 12,5 C 15,4 C 71 % 1022,2 hPa 0,0 mm 3,6 km/h (1 Bft) O-SO 112 7,4 C 0,0 km/h (0 Bft)
02.10.2015 12:45 12,4 C 14,7 C 71 % 1022,2 hPa 0,0 mm 2,1 km/h (1 Bft) O 90 7,3 C 0,0 km/h (0 Bft)
02.10.2015 12:50 12,4 C 14,2 C 71 % 1022,2 hPa 0,0 mm 0,3 km/h (0 Bft) O-NO 67 7,3 C 0,0 km/h (0 Bft)
02.10.2015 12:55 12,6 C 14,3 C 71 % 1021,8 hPa 0,0 mm 0,5 km/h (0 Bft) O-SO 112 7,5 C 3,4 km/h (1 Bft)
02.10.2015 13:00 12,8 C 14,9 C 72 % 1021,8 hPa 0,0 mm 0,5 km/h (0 Bft) N-NO 22 7,9 C 5,2 km/h (1 Bft)
02.10.2015 13:05 13,0 C 15,4 C 70 % 1021,8 hPa 0,0 mm 0,8 km/h (0 Bft) O-NO 67 7,7 C 7,0 km/h (2 Bft)
02.10.2015 13:10 13,4 C 16,1 C 71 % 1021,8 hPa 0,0 mm 0,5 km/h (0 Bft) N-NO 22 8,3 C 2,8 km/h (1 Bft)
02.10.2015 13:15 13,7 C 16,6 C 71 % 1021,2 hPa 0,0 mm 1,0 km/h (0 Bft) N-NO 22 8,5 C 3,4 km/h (1 Bft)
02.10.2015 13:20 14,2 C 17,1 C 70 % 1021,2 hPa 0,0 mm 2,1 km/h (1 Bft) NO 45 8,8 C 6,0 km/h (2 Bft)
02.10.2015 13:25 14,6 C 17,6 C 70 % 1021,2 hPa 0,0 mm 2,1 km/h (1 Bft) O-NO 67 9,2 C 0,0 km/h (0 Bft)
02.10.2015 13:30 15,0 C 18,1 C 68 % 1021,2 hPa 0,0 mm 3,4 km/h (1 Bft) NO 45 9,1 C 14,5 km/h (3 Bft)
02.10.2015 13:35 14,9 C 18,0 C 68 % 1021,1 hPa 0,0 mm 5,4 km/h (1 Bft) O-NO 67 9,0 C 8,3 km/h (2 Bft)
02.10.2015 13:40 15,2 C 18,8 C 67 % 1021,1 hPa 0,0 mm 8,5 km/h (2 Bft) N-NO 22 9,1 C 17,9 km/h (3 Bft)
02.10.2015 13:45 15,2 C 18,9 C 67 % 1021,1 hPa 0,0 mm 8,3 km/h (2 Bft) O-NO 67 9,1 C 11,9 km/h (2 Bft)
02.10.2015 13:50 15,3 C 18,8 C 67 % 1021,1 hPa 0,0 mm 6,7 km/h (2 Bft) N-NO 22 9,2 C 10,4 km/h (2 Bft)
02.10.2015 13:55 15,7 C 19,3 C 67 % 1020,8 hPa 0,0 mm 5,4 km/h (1 Bft) O-NO 67 9,6 C 6,7 km/h (2 Bft)
02.10.2015 14:00 15,9 C 20,2 C 66 % 1020,8 hPa 0,0 mm 7,8 km/h (2 Bft) SO 135 9,6 C 11,1 km/h (2 Bft)
02.10.2015 14:05 15,8 C 20,3 C 66 % 1020,8 hPa 0,0 mm 8,3 km/h (2 Bft) NO 45 9,5 C 8,5 km/h (2 Bft)
02.10.2015 14:10 15,6 C 19,0 C 66 % 1020,8 hPa 0,0 mm 7,8 km/h (2 Bft) N-NO 22 9,3 C 18,1 km/h (3 Bft)
02.10.2015 14:14 15,5 C 18,4 C 66 % 1021,0 hPa 0,0 mm 6,2 km/h (2 Bft) O-NO 67 9,2 C 6,2 km/h (2 Bft)
02.10.2015 14:15 15,5 C 18,4 C 66 % 1021,0 hPa 0,0 mm 6,2 km/h (2 Bft) O-NO 67 9,2 C 6,2 km/h (2 Bft)
02.10.2015 14:20 15,8 C 18,6 C 66 % 1021,0 hPa 0,0 mm 4,9 km/h (1 Bft) NO 45 9,5 C 11,4 km/h (2 Bft)
02.10.2015 14:25 16,3 C 19,5 C 64 % 1021,0 hPa 0,0 mm 5,7 km/h (1 Bft) NO 45 9,5 C 18,1 km/h (3 Bft)
02.10.2015 14:30 16,8 C 20,4 C 64 % 1021,0 hPa 0,0 mm 6,7 km/h (2 Bft) O 90 10,0 C 6,7 km/h (2 Bft)
02.10.2015 14:35 17,3 C 21,9 C 62 % 1020,7 hPa 0,0 mm 7,3 km/h (2 Bft) O-NO 67 9,9 C 9,1 km/h (2 Bft)
02.10.2015 14:40 17,2 C 22,5 C 60 % 1020,7 hPa 0,0 mm 9,3 km/h (2 Bft) N-NO 22 9,4 C 19,9 km/h (4 Bft)
02.10.2015 14:45 17,3 C 22,7 C 60 % 1020,7 hPa 0,0 mm 8,8 km/h (2 Bft) O 90 9,5 C 10,4 km/h (2 Bft)
02.10.2015 14:50 17,7 C 23,1 C 61 % 1020,7 hPa 0,0 mm 6,5 km/h (2 Bft) N-NO 22 10,1 C 4,7 km/h (1 Bft)
02.10.2015 14:55 17,6 C 22,9 C 60 % 1020,6 hPa 0,0 mm 7,8 km/h (2 Bft) N-NW 337 9,7 C 13,2 km/h (3 Bft)
02.10.2015 15:00 17,6 C 22,2 C 60 % 1020,6 hPa 0,0 mm 8,8 km/h (2 Bft) NO 45 9,7 C 3,4 km/h (1 Bft)
02.10.2015 15:05 17,6 C 22,0 C 60 % 1020,6 hPa 0,0 mm 8,0 km/h (2 Bft) O-NO 67 9,7 C 13,2 km/h (3 Bft)
02.10.2015 15:10 17,6 C 21,9 C 61 % 1020,6 hPa 0,0 mm 6,5 km/h (2 Bft) O-NO 67 10,0 C 7,3 km/h (2 Bft)
02.10.2015 15:15 17,7 C 21,7 C 60 % 1020,7 hPa 0,0 mm 7,8 km/h (2 Bft) NO 45 9,8 C 11,1 km/h (2 Bft)
02.10.2015 15:20 17,4 C 20,8 C 60 % 1020,7 hPa 0,0 mm 8,3 km/h (2 Bft) N-NO 22 9,6 C 10,4 km/h (2 Bft)
02.10.2015 15:25 17,7 C 21,2 C 62 % 1020,7 hPa 0,0 mm 6,7 km/h (2 Bft) N 360 10,3 C 0,0 km/h (0 Bft)
02.10.2015 15:30 17,8 C 21,8 C 60 % 1020,7 hPa 0,0 mm 7,5 km/h (2 Bft) NO 45 9,9 C 20,5 km/h (4 Bft)
02.10.2015 15:35 17,7 C 21,7 C 61 % 1020,4 hPa 0,0 mm 7,8 km/h (2 Bft) N-NO 22 10,1 C 7,0 km/h (2 Bft)
02.10.2015 15:40 18,0 C 22,1 C 61 % 1020,4 hPa 0,0 mm 7,0 km/h (2 Bft) O-NO 67 10,4 C 16,1 km/h (3 Bft)
02.10.2015 15:45 17,8 C 21,7 C 60 % 1020,4 hPa 0,0 mm 7,5 km/h (2 Bft) O-NO 67 9,9 C 13,5 km/h (3 Bft)
02.10.2015 15:50 17,9 C 21,8 C 60 % 1020,4 hPa 0,0 mm 8,5 km/h (2 Bft) SO 135 10,0 C 10,9 km/h (2 Bft)
02.10.2015 15:55 17,9 C 22,0 C 60 % 1019,9 hPa 0,0 mm 6,0 km/h (2 Bft) O-SO 112 10,0 C 6,0 km/h (2 Bft)
02.10.2015 16:00 16,9 C 20,0 C 60 % 1019,9 hPa 0,0 mm 5,2 km/h (1 Bft) NO 45 9,1 C 9,1 km/h (2 Bft)
02.10.2015 16:05 16,6 C 18,7 C 61 % 1019,9 hPa 0,0 mm 4,4 km/h (1 Bft) O 90 9,0 C 0,0 km/h (0 Bft)
02.10.2015 16:10 16,4 C 17,6 C 62 % 1019,9 hPa 0,0 mm 4,7 km/h (1 Bft) O 90 9,1 C 5,2 km/h (1 Bft)
02.10.2015 16:15 16,8 C 18,2 C 63 % 1019,8 hPa 0,0 mm 3,9 km/h (1 Bft) NO 45 9,7 C 9,8 km/h (2 Bft)
02.10.2015 16:20 17,1 C 20,4 C 62 % 1019,8 hPa 0,0 mm 4,7 km/h (1 Bft) NO 45 9,8 C 9,3 km/h (2 Bft)
02.10.2015 16:25 16,9 C 20,8 C 62 % 1019,8 hPa 0,0 mm 6,0 km/h (2 Bft) N-NO 22 9,6 C 12,2 km/h (2 Bft)
02.10.2015 16:30 16,8 C 21,1 C 62 % 1019,8 hPa 0,0 mm 7,3 km/h (2 Bft) N-NO 22 9,5 C 13,2 km/h (3 Bft)
02.10.2015 16:35 16,8 C 20,4 C 62 % 1019,4 hPa 0,0 mm 7,5 km/h (2 Bft) O-NO 67 9,5 C 10,9 km/h (2 Bft)
02.10.2015 16:40 16,6 C 19,1 C 62 % 1019,4 hPa 0,0 mm 7,0 km/h (2 Bft) O 90 9,3 C 2,6 km/h (1 Bft)
02.10.2015 16:45 16,3 C 18,3 C 62 % 1019,4 hPa 0,0 mm 4,9 km/h (1 Bft) S-SO 157 9,0 C 4,1 km/h (1 Bft)
02.10.2015 16:50 16,1 C 17,5 C 63 % 1019,4 hPa 0,0 mm 1,8 km/h (1 Bft) O-NO 67 9,1 C 3,4 km/h (1 Bft)
02.10.2015 16:55 15,9 C 17,1 C 64 % 1019,1 hPa 0,0 mm 2,6 km/h (1 Bft) O-NO 67 9,1 C 0,0 km/h (0 Bft)
02.10.2015 17:00 15,6 C 16,6 C 65 % 1019,1 hPa 0,0 mm 2,1 km/h (1 Bft) NO 45 9,0 C 5,2 km/h (1 Bft)
02.10.2015 17:05 15,6 C 16,4 C 65 % 1019,1 hPa 0,0 mm 2,8 km/h (1 Bft) N-NO 22 9,0 C 3,6 km/h (1 Bft)
02.10.2015 17:10 15,6 C 16,2 C 65 % 1019,1 hPa 0,0 mm 2,1 km/h (1 Bft) O-NO 67 9,0 C 0,0 km/h (0 Bft)
02.10.2015 17:15 15,5 C 16,1 C 66 % 1018,9 hPa 0,0 mm 0,8 km/h (0 Bft) O-SO 112 9,2 C 0,0 km/h (0 Bft)
02.10.2015 17:20 15,3 C 15,9 C 66 % 1018,9 hPa 0,0 mm 1,3 km/h (1 Bft) O-SO 112 9,0 C 0,0 km/h (0 Bft)
02.10.2015 17:25 15,3 C 15,8 C 67 % 1018,9 hPa 0,0 mm 1,0 km/h (0 Bft) SO 135 9,2 C 0,0 km/h (0 Bft)
02.10.2015 17:30 15,3 C 15,8 C 67 % 1018,9 hPa 0,0 mm 0,0 km/h (0 Bft) O-NO 67 9,2 C 0,0 km/h (0 Bft)
02.10.2015 17:35 15,3 C 15,9 C 68 % 1018,8 hPa 0,0 mm 0,3 km/h (0 Bft) O-SO 112 9,4 C 3,9 km/h (1 Bft)
02.10.2015 17:40 15,1 C 15,7 C 68 % 1018,8 hPa 0,0 mm 0,8 km/h (0 Bft) O-NO 67 9,2 C 3,4 km/h (1 Bft)
02.10.2015 17:45 15,1 C 15,6 C 68 % 1018,8 hPa 0,0 mm 0,8 km/h (0 Bft) NO 45 9,2 C 0,0 km/h (0 Bft)
02.10.2015 17:50 15,0 C 15,3 C 68 % 1018,8 hPa 0,0 mm 0,0 km/h (0 Bft) S 180 9,1 C 0,0 km/h (0 Bft)
02.10.2015 17:55 14,8 C 15,2 C 69 % 1018,6 hPa 0,0 mm 0,0 km/h (0 Bft) O-SO 112 9,2 C 0,0 km/h (0 Bft)
02.10.2015 18:00 14,4 C 14,8 C 69 % 1018,6 hPa 0,0 mm 0,3 km/h (0 Bft) O-SO 112 8,8 C 0,0 km/h (0 Bft)
02.10.2015 18:05 14,2 C 14,6 C 69 % 1018,6 hPa 0,0 mm 0,3 km/h (0 Bft) NO 45 8,6 C 0,0 km/h (0 Bft)
02.10.2015 18:10 13,9 C 14,1 C 69 % 1018,6 hPa 0,0 mm 0,3 km/h (0 Bft) SO 135 8,3 C 0,0 km/h (0 Bft)
02.10.2015 18:15 13,7 C 13,8 C 71 % 1018,6 hPa 0,0 mm 0,0 km/h (0 Bft) SO 135 8,5 C 0,0 km/h (0 Bft)
02.10.2015 18:20 13,3 C 13,3 C 71 % 1018,6 hPa 0,0 mm 0,8 km/h (0 Bft) S-SO 157 8,2 C 7,0 km/h (2 Bft)
02.10.2015 18:25 13,2 C 13,2 C 71 % 1018,6 hPa 0,0 mm 1,0 km/h (0 Bft) O 90 8,1 C 0,0 km/h (0 Bft)
02.10.2015 18:30 12,9 C 12,9 C 73 % 1018,6 hPa 0,0 mm 1,3 km/h (1 Bft) S-SO 157 8,2 C 0,0 km/h (0 Bft)
02.10.2015 18:35 12,8 C 12,8 C 74 % 1018,5 hPa 0,0 mm 1,8 km/h (1 Bft) SO 135 8,3 C 5,2 km/h (1 Bft)
02.10.2015 18:40 12,6 C 12,5 C 74 % 1018,5 hPa 0,0 mm 1,8 km/h (1 Bft) N-NO 22 8,1 C 0,0 km/h (0 Bft)
02.10.2015 18:45 12,5 C 12,4 C 74 % 1018,5 hPa 0,0 mm 1,3 km/h (1 Bft) NO 45 8,0 C 3,1 km/h (1 Bft)
02.10.2015 18:50 12,4 C 12,3 C 75 % 1018,5 hPa 0,0 mm 1,3 km/h (1 Bft) O 90 8,1 C 4,4 km/h (1 Bft)
02.10.2015 18:55 12,2 C 12,1 C 75 % 1018,2 hPa 0,0 mm 1,0 km/h (0 Bft) SO 135 7,9 C 0,0 km/h (0 Bft)
02.10.2015 19:00 12,1 C 12,0 C 75 % 1018,2 hPa 0,0 mm 0,8 km/h (0 Bft) S-SW 202 7,8 C 0,0 km/h (0 Bft)
02.10.2015 19:05 12,0 C 11,9 C 75 % 1018,2 hPa 0,0 mm 0,5 km/h (0 Bft) SO 135 7,7 C 3,9 km/h (1 Bft)
02.10.2015 19:10 12,1 C 12,0 C 76 % 1018,2 hPa 0,0 mm 0,5 km/h (0 Bft) O-SO 112 8,0 C 2,6 km/h (1 Bft)
02.10.2015 19:15 12,0 C 11,9 C 76 % 1018,1 hPa 0,0 mm 0,5 km/h (0 Bft) SO 135 7,9 C 2,8 km/h (1 Bft)
02.10.2015 19:20 11,9 C 11,8 C 76 % 1018,1 hPa 0,0 mm 0,8 km/h (0 Bft) SO 135 7,8 C 0,0 km/h (0 Bft)
02.10.2015 19:25 11,9 C 11,8 C 77 % 1018,1 hPa 0,0 mm 0,8 km/h (0 Bft) W-NW 292 8,0 C 0,0 km/h (0 Bft)
02.10.2015 19:30 11,8 C 11,7 C 77 % 1018,1 hPa 0,0 mm 1,0 km/h (0 Bft) SW 225 7,9 C 4,1 km/h (1 Bft)
02.10.2015 19:35 11,8 C 11,7 C 77 % 1018,1 hPa 0,0 mm 0,5 km/h (0 Bft) NO 45 7,9 C 0,0 km/h (0 Bft)
02.10.2015 19:40 11,7 C 11,6 C 77 % 1018,1 hPa 0,0 mm 0,3 km/h (0 Bft) S-SO 157 7,8 C 0,0 km/h (0 Bft)
02.10.2015 19:45 11,6 C 11,5 C 77 % 1018,1 hPa 0,0 mm 0,0 km/h (0 Bft) S-SW 202 7,7 C 0,0 km/h (0 Bft)
02.10.2015 19:50 11,6 C 11,5 C 77 % 1018,1 hPa 0,0 mm 0,8 km/h (0 Bft) S-SO 157 7,7 C 0,0 km/h (0 Bft)
02.10.2015 19:55 11,6 C 11,5 C 77 % 1018,1 hPa 0,0 mm 0,8 km/h (0 Bft) SO 135 7,7 C 0,0 km/h (0 Bft)
02.10.2015 20:00 11,5 C 11,4 C 77 % 1018,1 hPa 0,0 mm 0,0 km/h (0 Bft) O-SO 112 7,6 C 0,0 km/h (0 Bft)
02.10.2015 20:05 11,4 C 11,2 C 78 % 1018,1 hPa 0,0 mm 0,0 km/h (0 Bft) S 180 7,7 C 0,0 km/h (0 Bft)
02.10.2015 20:10 11,4 C 11,3 C 77 % 1018,1 hPa 0,0 mm 0,3 km/h (0 Bft) O-SO 112 7,5 C 0,0 km/h (0 Bft)
02.10.2015 20:15 11,6 C 11,5 C 78 % 1018,1 hPa 0,0 mm 0,3 km/h (0 Bft) O 90 7,9 C 0,0 km/h (0 Bft)
02.10.2015 20:20 11,6 C 11,5 C 78 % 1018,1 hPa 0,0 mm 0,3 km/h (0 Bft) O 90 7,9 C 0,0 km/h (0 Bft)
02.10.2015 20:25 11,6 C 11,5 C 78 % 1018,1 hPa 0,0 mm 0,0 km/h (0 Bft) O 90 7,9 C 0,0 km/h (0 Bft)
02.10.2015 20:30 11,4 C 11,3 C 78 % 1018,1 hPa 0,0 mm 0,0 km/h (0 Bft) NW 315 7,7 C 0,0 km/h (0 Bft)
02.10.2015 20:35 11,0 C 11,0 C 77 % 1017,9 hPa 0,0 mm 0,0 km/h (0 Bft) W-NW 292 7,1 C 0,0 km/h (0 Bft)
02.10.2015 20:40 11,0 C 10,9 C 78 % 1017,9 hPa 0,0 mm 0,0 km/h (0 Bft) S 180 7,3 C 0,0 km/h (0 Bft)
02.10.2015 20:45 11,2 C 11,1 C 79 % 1017,9 hPa 0,0 mm 0,3 km/h (0 Bft) SW 225 7,7 C 0,0 km/h (0 Bft)
02.10.2015 20:50 10,7 C 10,7 C 78 % 1017,9 hPa 0,0 mm 0,3 km/h (0 Bft) S 180 7,0 C 0,0 km/h (0 Bft)
02.10.2015 20:55 10,6 C 10,6 C 79 % 1017,8 hPa 0,0 mm 0,0 km/h (0 Bft) O 90 7,1 C 0,0 km/h (0 Bft)
02.10.2015 21:00 10,3 C 10,3 C 79 % 1017,8 hPa 0,0 mm 0,0 km/h (0 Bft) NW 315 6,8 C 0,0 km/h (0 Bft)
02.10.2015 21:05 10,1 C 10,1 C 79 % 1017,8 hPa 0,0 mm 0,0 km/h (0 Bft) NW 315 6,6 C 0,0 km/h (0 Bft)
02.10.2015 21:10 10,0 C 9,9 C 79 % 1017,8 hPa 0,0 mm 0,5 km/h (0 Bft) S 180 6,5 C 4,4 km/h (1 Bft)
02.10.2015 21:15 10,5 C 10,2 C 82 % 1017,6 hPa 0,0 mm 1,8 km/h (1 Bft) SO 135 7,6 C 2,6 km/h (1 Bft)
02.10.2015 21:20 10,1 C 10,0 C 82 % 1017,6 hPa 0,0 mm 2,3 km/h (1 Bft) O-NO 67 7,2 C 0,0 km/h (0 Bft)
02.10.2015 21:25 9,8 C 9,7 C 81 % 1017,6 hPa 0,0 mm 1,3 km/h (1 Bft) SW 225 6,7 C 3,4 km/h (1 Bft)
02.10.2015 21:30 9,3 C 9,3 C 81 % 1017,6 hPa 0,0 mm 0,5 km/h (0 Bft) SW 225 6,2 C 0,0 km/h (0 Bft)
02.10.2015 21:35 9,3 C 9,2 C 81 % 1017,6 hPa 0,0 mm 0,3 km/h (0 Bft) W-SW 247 6,2 C 0,0 km/h (0 Bft)
02.10.2015 21:40 9,1 C 9,0 C 81 % 1017,6 hPa 0,0 mm 0,0 km/h (0 Bft) S 180 6,0 C 0,0 km/h (0 Bft)
02.10.2015 21:45 9,4 C 9,1 C 83 % 1017,6 hPa 0,0 mm 0,0 km/h (0 Bft) SO 135 6,7 C 0,0 km/h (0 Bft)
02.10.2015 21:50 9,6 C 9,4 C 84 % 1017,6 hPa 0,0 mm 0,0 km/h (0 Bft) O-SO 112 7,0 C 0,0 km/h (0 Bft)
02.10.2015 21:55 9,1 C 9,0 C 84 % 1017,4 hPa 0,0 mm 0,0 km/h (0 Bft) NW 315 6,5 C 3,1 km/h (1 Bft)
02.10.2015 22:00 8,9 C 8,8 C 84 % 1017,4 hPa 0,0 mm 0,8 km/h (0 Bft) W-SW 247 6,3 C 0,0 km/h (0 Bft)
02.10.2015 22:05 8,9 C 8,8 C 84 % 1017,4 hPa 0,0 mm 1,0 km/h (0 Bft) O-NO 67 6,3 C 0,0 km/h (0 Bft)
02.10.2015 22:10 8,6 C 8,6 C 84 % 1017,4 hPa 0,0 mm 0,3 km/h (0 Bft) N-NO 22 6,1 C 0,0 km/h (0 Bft)
02.10.2015 22:15 8,4 C 8,4 C 84 % 1017,4 hPa 0,0 mm 0,3 km/h (0 Bft) O-NO 67 5,9 C 0,0 km/h (0 Bft)
02.10.2015 22:20 8,7 C 8,5 C 85 % 1017,4 hPa 0,0 mm 0,0 km/h (0 Bft) S-SO 157 6,3 C 0,0 km/h (0 Bft)
02.10.2015 22:25 8,9 C 8,7 C 86 % 1017,4 hPa 0,0 mm 0,0 km/h (0 Bft) SO 135 6,7 C 0,0 km/h (0 Bft)
02.10.2015 22:30 8,7 C 8,6 C 86 % 1017,4 hPa 0,0 mm 0,0 km/h (0 Bft) O-SO 112 6,5 C 0,0 km/h (0 Bft)
02.10.2015 22:35 8,5 C 8,4 C 86 % 1017,3 hPa 0,0 mm 0,0 km/h (0 Bft) O-SO 112 6,3 C 0,0 km/h (0 Bft)
02.10.2015 22:40 8,8 C 8,7 C 87 % 1017,3 hPa 0,0 mm 0,5 km/h (0 Bft) N-NW 337 6,8 C 0,0 km/h (0 Bft)
02.10.2015 22:45 8,4 C 8,4 C 86 % 1017,3 hPa 0,0 mm 0,8 km/h (0 Bft) O-NO 67 6,2 C 0,0 km/h (0 Bft)
02.10.2015 22:50 8,6 C 8,4 C 87 % 1017,3 hPa 0,0 mm 0,3 km/h (0 Bft) O-NO 67 6,6 C 0,0 km/h (0 Bft)
02.10.2015 22:55 8,4 C 8,3 C 87 % 1017,2 hPa 0,0 mm 0,0 km/h (0 Bft) NW 315 6,4 C 0,0 km/h (0 Bft)
02.10.2015 23:00 7,9 C 7,9 C 87 % 1017,2 hPa 0,0 mm 0,0 km/h (0 Bft) NW 315 5,9 C 0,0 km/h (0 Bft)
02.10.2015 23:05 7,9 C 7,8 C 87 % 1017,2 hPa 0,0 mm 0,0 km/h (0 Bft) N-NW 337 5,9 C 0,0 km/h (0 Bft)
02.10.2015 23:10 7,5 C 7,6 C 86 % 1017,2 hPa 0,0 mm 0,0 km/h (0 Bft) NO 45 5,3 C 0,0 km/h (0 Bft)
02.10.2015 23:15 7,5 C 7,5 C 86 % 1017,2 hPa 0,0 mm 0,0 km/h (0 Bft) NW 315 5,3 C 0,0 km/h (0 Bft)
02.10.2015 23:20 7,9 C 7,7 C 87 % 1017,2 hPa 0,0 mm 0,0 km/h (0 Bft) O 90 5,9 C 0,0 km/h (0 Bft)
02.10.2015 23:25 8,1 C 7,9 C 87 % 1017,2 hPa 0,0 mm 0,0 km/h (0 Bft) O 90 6,1 C 0,0 km/h (0 Bft)
02.10.2015 23:30 8,1 C 8,0 C 87 % 1017,2 hPa 0,0 mm 0,0 km/h (0 Bft) NW 315 6,1 C 0,0 km/h (0 Bft)
02.10.2015 23:35 8,0 C 7,9 C 87 % 1017,1 hPa 0,0 mm 0,0 km/h (0 Bft) NW 315 6,0 C 0,0 km/h (0 Bft)
02.10.2015 23:40 8,3 C 8,3 C 84 % 1017,1 hPa 0,0 mm 0,0 km/h (0 Bft) N-NO 22 5,8 C 0,0 km/h (0 Bft)
02.10.2015 23:45 8,4 C 8,5 C 84 % 1017,1 hPa 0,0 mm 0,0 km/h (0 Bft) NO 45 5,9 C 0,0 km/h (0 Bft)
02.10.2015 23:50 8,6 C 8,6 C 84 % 1017,1 hPa 0,0 mm 0,0 km/h (0 Bft) NW 315 6,1 C 0,0 km/h (0 Bft)
02.10.2015 23:55 8,6 C 8,6 C 88 % 1017,0 hPa 0,0 mm 0,0 km/h (0 Bft) N-NO 22 6,7 C 0,0 km/h (0 Bft)
_ Min-Zeit 07:05 07:05 16:00 23:55 - 23:55 - - 07:05 23:55
Minimum _ 0,6 C 0,4 C 60 % 1017,0 hPa - 0,0 km/h (0 Bft) - - -0,7 C 0,0 km/h (0 Bft)
_ Max-Zeit 15:40 14:50 08:55 11:50 23:55 14:40 - - 15:40 15:30
Maximum _ 18,0 C 23,1 C 93 % 1023,9 hPa 0,0 mm 9,3 km/h
N-NO (2 Bft)
- - 10,4 C 20,5 km/h
NO (4 Bft)
Durchschnitt _ 8,3 C 10,0 C 80 % 1020,6 hPa #0,0 mm 1,6 km/h (1 Bft) O-NO - 4,9 C 2,4 km/h (1 Bft)